Regional Weather Roundup
Issued by NWS Columbia, SC

Home | Current Version | Previous Version | Text Only | Print | Product List | Glossary On
Versions: 1 2 3 4 5 6 7 8 9 10 11 12 13 14 15 16 17 18 19 20 21 22 23 24 25 26 27 28 29 30 31 32 33 34 35 36 37 38 39 40 41 42 43 44 45 46 47 48 49 50
000
ASUS42 KCAE 292210
RWRCAE
REGIONAL WEATHER ROUNDUP
NATIONAL WEATHER SERVICE COLUMBIA SC
600 PM EDT TUE JUL 29 2014

NOTE: "FAIR" INDICATES FEW OR NO CLOUDS BELOW 12,000 FEET WITH NO
SIGNIFICANT WEATHER AND/OR OBSTRUCTIONS TO VISIBILITY.

NOT ALL STATIONS ARE QUALITY CONTROLLED BY THE NATIONAL
WEATHER SERVICE. USE DATA WITH CAUTION...ESPECIALLY
DEWPOINT OBSERVATIONS.

SCZ001>056-GAZ040-063>065-077-292300-
...UPSTATE SOUTH CAROLINA...

CITY           SKY/WX    TMP DP  RH WIND       PRES   REMARKS
ANDERSON       SUNNY     83  54  36 MISG      29.95S
LIBERTY        FAIR      83  78  86 SW8       29.95S
SPARTANBURG    FAIR      82  55  39 CALM      29.95S
CLEMSON        SUNNY     84  51  31 W10       29.97R
GREENVILLE     CLOUDY    82  52  35 CALM      29.96S
GREENWOOD      SUNNY     86  55  34 VRB3      29.95S
GREER          PTSUNNY   81  55  40 N5        29.95R
ROCK HILL      SUNNY     82  56  40 N7        29.96R
CHESTER        FAIR      84  55  37 N3        29.95F
LAURENS        FAIR      84  52  32 NW5       29.96S


...CENTRAL SOUTH CAROLINA...

CITY           SKY/WX    TMP DP  RH WIND       PRES   REMARKS
COLUMBIA APT   MOSUNNY   90  52  27 VRB6      29.91S
COLUMBIA OWENS PTSUNNY   87  53  31 VRB3      29.92S
DARLINGTON     MOSUNNY   84  63  48 NE5       29.93S
FLORENCE       PTSUNNY   86  60  41 N6        29.91S
MCENTIRE ANGB  MOSUNNY   87  53  30 VRB6      29.92S
ORANGEBURG     SUNNY     86  57  37 VRB5      29.91S
SUMTER SHAW    SUNNY     86  59  39 NW6       29.90S
NEWBERRY       FAIR      84  54  34 W3        29.96S
AIKEN          FAIR      86  61  42 NW7       29.95S
BARNWELL       FAIR      90  59  35 W5        29.91S
MANNING        MOCLDY    86  64  48 CALM      29.91S
CAMDEN         FAIR      86  55  35 NW9       29.94R
LANCASTER      FAIR      82  55  39 W6        29.95S
WINNSBORO      FAIR      86  52  30 NW9       29.93S


...EASTERN AND COASTAL SOUTH CAROLINA...

CITY           SKY/WX    TMP DP  RH WIND       PRES   REMARKS
MYRTLE BEACH   MOSUNNY   84  64  51 S8        29.90S
N MYRTLE BCH   CLOUDY    83  66  56 S8        29.90R
CONWAY         FAIR      86  63  45 W3        29.91S
MARION         FAIR      84  57  39 N6        29.92R
HARTSVILLE     FAIR      86  21   9 N6        29.94R
FLORENCE       PTSUNNY   86  60  41 N6        29.91S
DARLINGTON     MOSUNNY   84  63  48 NE5       29.93S
CHARLESTON APT MOSUNNY   89  63  41 N8        29.89S
MOUNT PLEASANT FAIR      84  73  70 SE5       29.90R
WALTERBORO       N/A     88  54  31 NW3       29.91S
BEAUFORT       MOSUNNY   90  63  40 NE6       29.89S


...EASTERN GEORGIA...

CITY           SKY/WX    TMP DP  RH WIND       PRES   REMARKS
AUGUSTA BUSH F MOSUNNY   86  58  38 SW6       29.90S
AUGUSTA DANIEL PTSUNNY   88  57  34 VRB7      29.93R
THOMSON        MOSUNNY   88  66  47 W6        29.97S
WASHINGTON     FAIR      88  61  40 W7        29.94S
CLAXTON        MOCLDY    88  64  45 NE3       29.90S
SYLVANIA       CLEAR     88  65  45 NW3       29.91F
STATESBORO     SUNNY     87  63  44 N3        29.91S
SAVANNAH       MOSUNNY   92  59  33 N12       29.89S


...SOUTHERN NORTH CAROLINA...

CITY           SKY/WX    TMP DP  RH WIND       PRES   REMARKS
CHARLOTTE      MOSUNNY   81  54  39 CALM      29.96R
MONROE         SUNNY     83  55  38 CALM      29.94S
WADESBORO      PTCLDY    83  55  37 NW5       29.94R
ROCKINGHAM       N/A     82  55  39 W7        29.94S
RUTHERFORDTON  PTSUNNY   78  57  47 CALM      29.98R
ASHEVILLE      PTSUNNY   74  54  49 N13       30.03R

$$



USA.gov is the U.S. government's official web portal to all federal, state and local government web resources and services.